ARG7098 SPPY-SPJJ

Flight info

Callsign ARG7098
Flight time 1h 8m
Altitude 33000
Route POY PUPMI NENER ANBIS
Aircraft E190/M-Y/S

Departure

Time 2026-05-04 13:45
Airport Chachapoyas Airport (SPPY)

Arrival

Time 2026-05-04 14:53
Airport Francisco Carle Airport (SPJJ)
Time Latitude Longitude Altitude Speed Heading
2026-05-04 13:31 -6.20635 -77.85338 8345 ft 0 kts 185°
2026-05-04 13:40 -6.20655 -77.85335 8351 ft 5 kts 146°
2026-05-04 13:40 -6.20669 -77.85292 8345 ft 9 kts 65°
2026-05-04 13:40 -6.20619 -77.85242 8350 ft 9 kts 43°
2026-05-04 13:40 -6.20569 -77.85218 8354 ft 9 kts 355°
2026-05-04 13:41 -6.20493 -77.85286 8348 ft 20 kts 313°
2026-05-04 13:41 -6.20375 -77.85414 8338 ft 30 kts 312°
2026-05-04 13:41 -6.20211 -77.85592 8338 ft 37 kts 313°
2026-05-04 13:42 -6.19856 -77.85984 8333 ft 39 kts 313°
2026-05-04 13:42 -6.19678 -77.86181 8307 ft 20 kts 312°
2026-05-04 13:42 -6.19635 -77.86244 8304 ft 13 kts 307°
2026-05-04 13:42 -6.19574 -77.86306 8300 ft 4 kts 333°
2026-05-04 13:43 -6.19574 -77.86297 8300 ft 1 kts 98°
2026-05-04 13:43 -6.19577 -77.86294 8300 ft 0 kts 131°
2026-05-04 13:44 -6.19589 -77.86281 8301 ft 16 kts 131°
2026-05-04 13:44 -6.19776 -77.86074 8326 ft 64 kts 132°
2026-05-04 13:44 -6.20181 -77.85625 8339 ft 110 kts 132°
2026-05-04 13:45 -6.20787 -77.84963 8371 ft 145 kts 134°
2026-05-04 13:45 -6.21548 -77.84137 8462 ft 168 kts 130°
2026-05-04 13:45 -6.22438 -77.83399 9093 ft 165 kts 154°
2026-05-04 13:45 -6.23542 -77.83102 9551 ft 166 kts 162°
2026-05-04 13:46 -6.24566 -77.82545 9831 ft 174 kts 134°
2026-05-04 13:46 -6.25338 -77.81623 10364 ft 169 kts 129°
2026-05-04 13:46 -6.26173 -77.80750 10635 ft 185 kts 136°
2026-05-04 13:46 -6.27249 -77.79929 11018 ft 199 kts 144°
2026-05-04 13:47 -6.28444 -77.79153 11469 ft 212 kts 142°
2026-05-04 13:47 -6.29657 -77.78224 11908 ft 225 kts 141°
2026-05-04 13:47 -6.30916 -77.77289 12576 ft 223 kts 141°
2026-05-04 13:47 -6.32115 -77.76376 13404 ft 212 kts 139°
2026-05-04 13:48 -6.33326 -77.75475 13765 ft 228 kts 141°
2026-05-04 13:48 -6.34532 -77.74257 13533 ft 263 kts 132°
2026-05-04 13:48 -6.35911 -77.72968 13948 ft 277 kts 137°
2026-05-04 13:48 -6.37463 -77.71662 14075 ft 306 kts 139°
2026-05-04 13:49 -6.39181 -77.70260 14284 ft 329 kts 140°
2026-05-04 13:49 -6.41017 -77.68777 14600 ft 348 kts 140°
2026-05-04 13:49 -6.42957 -77.67217 14977 ft 365 kts 140°
2026-05-04 13:49 -6.44979 -77.65591 15469 ft 377 kts 139°
2026-05-04 13:50 -6.46986 -77.63857 16155 ft 383 kts 138°
2026-05-04 13:50 -6.49113 -77.62202 16844 ft 389 kts 142°
2026-05-04 13:50 -6.51359 -77.60632 17505 ft 395 kts 144°
2026-05-04 13:50 -6.53677 -77.59161 18121 ft 401 kts 147°
2026-05-04 13:51 -6.56080 -77.57708 18688 ft 406 kts 147°
2026-05-04 13:51 -6.58532 -77.56250 19219 ft 410 kts 148°
2026-05-04 13:51 -6.61001 -77.54793 19750 ft 413 kts 148°
2026-05-04 13:51 -6.63492 -77.53326 20251 ft 417 kts 148°
2026-05-04 13:52 -6.68539 -77.50354 21211 ft 423 kts 148°
2026-05-04 13:52 -6.71085 -77.48850 21687 ft 425 kts 148°
2026-05-04 13:52 -6.73647 -77.47334 22067 ft 430 kts 148°
2026-05-04 13:53 -6.76223 -77.45809 22539 ft 431 kts 148°
2026-05-04 13:53 -6.78824 -77.44270 22972 ft 434 kts 148°
2026-05-04 13:53 -6.81437 -77.42718 23367 ft 438 kts 148°
2026-05-04 13:54 -6.86715 -77.39577 24115 ft 444 kts 148°
2026-05-04 13:54 -6.89043 -77.38192 24409 ft 446 kts 148°
2026-05-04 13:54 -6.92380 -77.36305 24782 ft 450 kts 155°
2026-05-04 13:55 -6.95390 -77.35383 25084 ft 455 kts 165°
2026-05-04 13:55 -7.01571 -77.33855 25677 ft 459 kts 163°
2026-05-04 13:55 -7.04657 -77.33018 25958 ft 461 kts 163°
2026-05-04 13:56 -7.07764 -77.32153 26226 ft 463 kts 163°
2026-05-04 13:56 -7.10874 -77.31273 26480 ft 466 kts 162°
2026-05-04 13:56 -7.17014 -77.29096 26985 ft 469 kts 158°
2026-05-04 13:57 -7.20032 -77.27919 27232 ft 471 kts 157°
2026-05-04 13:57 -7.23094 -77.26720 27472 ft 473 kts 157°
2026-05-04 13:58 -7.32369 -77.23071 28226 ft 480 kts 157°
2026-05-04 13:58 -7.38608 -77.20618 28679 ft 484 kts 157°
2026-05-04 13:58 -7.41756 -77.19381 28922 ft 485 kts 157°
2026-05-04 13:59 -7.44909 -77.18142 29131 ft 487 kts 157°
2026-05-04 13:59 -7.48031 -77.16914 29372 ft 488 kts 157°
2026-05-04 13:59 -7.54320 -77.14442 30236 ft 482 kts 156°
2026-05-04 14:00 -7.57449 -77.13212 30507 ft 481 kts 157°
2026-05-04 14:00 -7.63675 -77.10763 31003 ft 479 kts 156°
2026-05-04 14:00 -7.66784 -77.09539 31264 ft 478 kts 156°
2026-05-04 14:01 -7.69886 -77.08319 31498 ft 478 kts 156°
2026-05-04 14:01 -7.72978 -77.07103 31751 ft 477 kts 156°
2026-05-04 14:01 -7.79145 -77.04674 32205 ft 476 kts 156°
2026-05-04 14:02 -7.82224 -77.03464 32464 ft 475 kts 156°
2026-05-04 14:02 -7.85308 -77.02249 32698 ft 475 kts 156°
2026-05-04 14:02 -7.88342 -77.01054 32920 ft 474 kts 156°
2026-05-04 14:02 -7.91421 -76.99842 33117 ft 468 kts 156°
2026-05-04 14:03 -7.94398 -76.98670 33184 ft 452 kts 156°
2026-05-04 14:03 -8.00314 -76.96336 33281 ft 461 kts 156°
2026-05-04 14:04 -8.09436 -76.92742 33318 ft 474 kts 156°
2026-05-04 14:04 -8.15532 -76.90338 33283 ft 471 kts 156°
2026-05-04 14:05 -8.24706 -76.86719 33372 ft 474 kts 156°
2026-05-04 14:05 -8.27779 -76.85505 33585 ft 474 kts 156°
2026-05-04 14:06 -8.30853 -76.84293 33792 ft 474 kts 156°
2026-05-04 14:06 -8.33927 -76.83079 33975 ft 475 kts 156°
2026-05-04 14:06 -8.37002 -76.81865 34185 ft 475 kts 156°
2026-05-04 14:06 -8.40086 -76.80648 34399 ft 475 kts 155°
2026-05-04 14:07 -8.43156 -76.79414 34546 ft 475 kts 155°
2026-05-04 14:07 -8.46246 -76.78337 34663 ft 478 kts 159°
2026-05-04 14:07 -8.49448 -76.77257 34781 ft 478 kts 159°
2026-05-04 14:07 -8.52572 -76.76234 34920 ft 479 kts 159°
2026-05-04 14:08 -8.55743 -76.75193 35022 ft 480 kts 159°
2026-05-04 14:08 -8.62123 -76.73105 35166 ft 481 kts 158°
2026-05-04 14:08 -8.65296 -76.72063 35270 ft 479 kts 159°
2026-05-04 14:09 -8.71653 -76.69979 35332 ft 479 kts 159°
2026-05-04 14:10 -8.81168 -76.66857 35334 ft 480 kts 159°
2026-05-04 14:10 -8.87518 -76.64771 35349 ft 480 kts 159°
2026-05-04 14:11 -8.93873 -76.62683 35333 ft 480 kts 159°
2026-05-04 14:11 -9.03418 -76.59547 35341 ft 481 kts 159°
2026-05-04 14:12 -9.09781 -76.57458 35320 ft 480 kts 159°
2026-05-04 14:13 -9.19319 -76.54318 35348 ft 480 kts 160°
2026-05-04 14:13 -9.25644 -76.52236 35338 ft 479 kts 160°
2026-05-04 14:14 -9.31989 -76.50146 35367 ft 481 kts 160°
2026-05-04 14:14 -9.41515 -76.47009 35382 ft 480 kts 160°
2026-05-04 14:15 -9.54221 -76.42820 35392 ft 481 kts 160°
2026-05-04 14:16 -9.63775 -76.39669 35394 ft 482 kts 160°
2026-05-04 14:17 -9.73354 -76.36507 35379 ft 482 kts 160°
2026-05-04 14:18 -9.82890 -76.33357 35349 ft 483 kts 160°
2026-05-04 14:19 -9.94376 -76.29562 35347 ft 483 kts 160°
2026-05-04 14:19 -10.00786 -76.27443 35361 ft 483 kts 160°
2026-05-04 14:20 -10.07184 -76.25326 35364 ft 483 kts 160°
2026-05-04 14:20 -10.13586 -76.23208 35399 ft 484 kts 160°
2026-05-04 14:21 -10.23077 -76.19857 35437 ft 482 kts 153°
2026-05-04 14:21 -10.29204 -76.17054 35449 ft 482 kts 153°
2026-05-04 14:22 -10.35306 -76.14215 35465 ft 483 kts 153°
2026-05-04 14:22 -10.41409 -76.11375 35461 ft 482 kts 153°
2026-05-04 14:23 -10.50579 -76.07105 35459 ft 483 kts 153°
2026-05-04 14:24 -10.56688 -76.04259 35478 ft 484 kts 153°
2026-05-04 14:24 -10.62814 -76.01404 35461 ft 484 kts 153°
2026-05-04 14:25 -10.68946 -75.98547 35476 ft 485 kts 153°
2026-05-04 14:25 -10.78086 -75.94284 35468 ft 484 kts 153°
2026-05-04 14:26 -10.84222 -75.91420 35468 ft 484 kts 153°
2026-05-04 14:26 -10.90348 -75.88559 35470 ft 485 kts 153°
2026-05-04 14:27 -10.96478 -75.85696 35472 ft 485 kts 153°
2026-05-04 14:27 -11.02623 -75.82824 35481 ft 485 kts 153°
2026-05-04 14:28 -11.08717 -75.79975 35473 ft 485 kts 153°
2026-05-04 14:28 -11.14861 -75.77102 35426 ft 485 kts 153°
2026-05-04 14:29 -11.27143 -75.71351 35483 ft 486 kts 154°
2026-05-04 14:30 -11.33295 -75.68470 35475 ft 486 kts 154°
2026-05-04 14:31 -11.42524 -75.64145 35474 ft 487 kts 154°
2026-05-04 14:32 -11.54838 -75.58367 35495 ft 487 kts 154°
2026-05-04 14:32 -11.60969 -75.55491 35570 ft 488 kts 153°
2026-05-04 14:33 -11.67134 -75.52593 35596 ft 487 kts 154°
2026-05-04 14:33 -11.73311 -75.49691 35612 ft 488 kts 154°
2026-05-04 14:34 -11.79485 -75.46790 35618 ft 487 kts 154°
2026-05-04 14:34 -11.85653 -75.43888 35621 ft 488 kts 154°
2026-05-04 14:35 -11.91778 -75.41006 35581 ft 488 kts 154°
2026-05-04 14:35 -11.97951 -75.38100 35558 ft 488 kts 154°
2026-05-04 14:36 -12.04133 -75.35188 35507 ft 488 kts 154°
2026-05-04 14:36 -12.10310 -75.32277 35485 ft 489 kts 154°
2026-05-04 14:37 -12.16490 -75.29362 35471 ft 489 kts 154°
2026-05-04 14:37 -12.22676 -75.26444 35459 ft 489 kts 154°
2026-05-04 14:38 -12.28819 -75.23544 35444 ft 489 kts 154°
2026-05-04 14:38 -12.34994 -75.20628 35455 ft 490 kts 154°
2026-05-04 14:38 -12.38157 -75.19304 35252 ft 490 kts 161°
2026-05-04 14:39 -12.41457 -75.18373 34202 ft 496 kts 167°
2026-05-04 14:39 -12.44871 -75.17806 33215 ft 497 kts 178°
2026-05-04 14:39 -12.48323 -75.17769 32429 ft 494 kts 183°
2026-05-04 14:40 -12.55011 -75.19050 30783 ft 487 kts 200°
2026-05-04 14:40 -12.58126 -75.20401 29771 ft 485 kts 208°
2026-05-04 14:40 -12.61027 -75.22191 28399 ft 491 kts 216°
2026-05-04 14:40 -12.63639 -75.24423 27519 ft 485 kts 225°
2026-05-04 14:41 -12.65866 -75.26984 26689 ft 479 kts 233°
2026-05-04 14:41 -12.67662 -75.29809 25967 ft 469 kts 242°
2026-05-04 14:41 -12.69506 -75.35999 25519 ft 463 kts 270°
2026-05-04 14:42 -12.67761 -75.42279 25452 ft 461 kts 308°
2026-05-04 14:42 -12.65470 -75.44526 25446 ft 458 kts 327°
2026-05-04 14:42 -12.62628 -75.45980 25446 ft 456 kts 343°
2026-05-04 14:43 -12.59533 -75.46637 25487 ft 454 kts 354°
2026-05-04 14:43 -12.56378 -75.46767 25494 ft 453 kts
2026-05-04 14:43 -12.53249 -75.46412 25477 ft 452 kts 11°
2026-05-04 14:43 -12.50162 -75.45751 25465 ft 452 kts 13°
2026-05-04 14:44 -12.47132 -75.45022 25446 ft 452 kts 14°
2026-05-04 14:44 -12.44074 -75.44262 25450 ft 452 kts 14°
2026-05-04 14:44 -12.41083 -75.43511 25420 ft 431 kts 14°
2026-05-04 14:44 -12.38244 -75.42799 25407 ft 409 kts 14°
2026-05-04 14:45 -12.35550 -75.42126 25387 ft 389 kts 14°
2026-05-04 14:45 -12.32978 -75.41489 25380 ft 371 kts 14°
2026-05-04 14:45 -12.30528 -75.40882 25306 ft 355 kts 14°
2026-05-04 14:45 -12.28164 -75.40300 24744 ft 344 kts 14°
2026-05-04 14:46 -12.25860 -75.39741 24042 ft 337 kts 14°
2026-05-04 14:46 -12.23604 -75.39203 23259 ft 330 kts 14°
2026-05-04 14:46 -12.21603 -75.38732 22585 ft 323 kts 15°
2026-05-04 14:46 -12.19434 -75.38227 21887 ft 318 kts 14°
2026-05-04 14:47 -12.17298 -75.37740 21603 ft 311 kts 15°
2026-05-04 14:47 -12.15214 -75.37272 21205 ft 309 kts 14°
2026-05-04 14:47 -12.13126 -75.36811 20794 ft 307 kts 15°
2026-05-04 14:47 -12.11044 -75.36352 20455 ft 304 kts 15°
2026-05-04 14:48 -12.08971 -75.35954 20052 ft 301 kts 12°
2026-05-04 14:48 -12.06900 -75.35650 19323 ft 300 kts 11°
2026-05-04 14:48 -12.04846 -75.35390 18697 ft 295 kts 11°
2026-05-04 14:48 -12.02815 -75.35155 17929 ft 292 kts
2026-05-04 14:49 -12.00800 -75.34925 17211 ft 290 kts
2026-05-04 14:49 -11.98786 -75.34804 16507 ft 288 kts
2026-05-04 14:49 -11.96792 -75.34771 15892 ft 285 kts
2026-05-04 14:49 -11.94817 -75.34756 15287 ft 282 kts
2026-05-04 14:50 -11.92894 -75.34971 14815 ft 274 kts 348°
2026-05-04 14:50 -11.91102 -75.35504 14443 ft 263 kts 341°
2026-05-04 14:50 -11.89376 -75.36127 14083 ft 261 kts 340°
2026-05-04 14:50 -11.87743 -75.36788 13565 ft 252 kts 334°
2026-05-04 14:51 -11.86210 -75.37644 12888 ft 251 kts 329°
2026-05-04 14:51 -11.84841 -75.38702 12489 ft 240 kts 316°
2026-05-04 14:51 -11.83791 -75.39916 12387 ft 217 kts 307°
2026-05-04 14:51 -11.83008 -75.41102 12362 ft 186 kts 302°
2026-05-04 14:52 -11.82344 -75.42112 12219 ft 159 kts 308°
2026-05-04 14:52 -11.81660 -75.42995 12014 ft 161 kts 310°
2026-05-04 14:52 -11.80955 -75.43900 11841 ft 166 kts 307°
2026-05-04 14:52 -11.80242 -75.44838 11585 ft 165 kts 308°
2026-05-04 14:53 -11.79541 -75.45762 11284 ft 166 kts 308°
2026-05-04 14:53 -11.78837 -75.46682 11033 ft 161 kts 308°
2026-05-04 14:53 -11.78279 -75.47402 11026 ft 75 kts 310°
2026-05-04 14:53 -11.78151 -75.47560 11024 ft 10 kts 310°
2026-05-04 14:54 -11.78163 -75.47568 11024 ft 3 kts 150°
2026-05-04 14:54 -11.78196 -75.47526 11024 ft 12 kts 130°
2026-05-04 14:54 -11.78267 -75.47437 11026 ft 20 kts 128°
2026-05-04 14:54 -11.78354 -75.47323 11028 ft 10 kts 128°
2026-05-04 14:55 -11.78406 -75.47281 11027 ft 9 kts 184°
2026-05-04 14:55 -11.78434 -75.47298 11027 ft 1 kts 219°
2026-05-04 14:55 -11.78446 -75.47301 11027 ft 3 kts 184°
2026-05-04 14:55 -11.78468 -75.47298 11027 ft 3 kts 199°
2026-05-04 14:56 -11.78479 -75.47307 11027 ft 1 kts 219°
2026-05-04 14:56 -11.78488 -75.47314 11027 ft 2 kts 218°
2026-05-04 14:56 -11.78491 -75.47317 11027 ft 0 kts 218°